Location: Unspecified
(43.4680°N, 87.1740°E)
Time: 20:15:25
(UTC+00:00)

X-37B - Pass Details

Date: 17 April 2021
Orbit: 386 x 389 km, 45.0° (Epoch: 08 May)

Event Time Altitude Azimuth Distance (km) Brightness Sun altitude
Exits shadow 21:07:37 22° 112° (ESE) 893 2.6 -22.5°
Drops below altitude 10° 21:09:15 10° 88° (E) 1,413 4.1 -22.2°
Sets 21:11:28 0° 77° (ENE) 2,269 5.5 -21.9°
